Location: Borojevi?i
(45.0486°N, 16.2297°E)
Time: 05:39:57
(UTC+00:00)

Cosmos 1184 Rocket - Pass Details

Date: 08 August 2020
Orbit: 406 x 423 km, 81.2° (Epoch: 19 September)

Event Time Altitude Azimuth Distance (km) Brightness Sun altitude
Exits shadow 20:21:14 55° 208° (SSW) 517 3.0 -19.2°
Maximum altitude 20:21:52 78° 280° (W) 439 2.8 -19.3°
Drops below altitude 10° 20:25:11 10° 8° (N) 1,524 6.1 -19.7°
Sets 20:27:15 0° 10° (N) 2,395 7.2 -19.9°
